Temp
84 90 89 78 63 72 68 79 88 82 79 86 85 83 74 75 72 61 71 76 77 86 89 87 82 83 83 83 83 83 83 83 83 83 84 84 84 84 84 84 84 84 84 84 84 84 84 84 84
94 91 87 77 61 61 73 82 78 79 87 88 89 87 82 72 73 69 74 77 85 90 92 90 81 82 83 83 83 83 84 84 84 84 84 84 84 84 84 84 84 84 84 84 84 84 84 84 84
91 91 78 73 67 64 72 80 83 87 91 86 85 82 84 75 75 75 87 81 88 89 88 87 82 83 83 83 84 84 84 84 84 84 84 84 84 84 84 84 84 84 84 84 84 84 84 84 84
84 85 85 64 61 85 81 86 89 86 88 90 87 79 87 88 79 87 88 90 87 85 93 84 83 84 84 84 84 84 84 84 84 84 84 84 84 84 84 84 84 84 84 84 84 84 84 84 84
89 87 79 76 82 86 91 93 89 83 87 89 85 79 77 84 91 91 90 92 89 89 92 89 83 84 84 84 84 84 84 84 84 84 84 84 84 84 84 85 85 85 84 84 84 84 84 85 85
78 88 64 61 83 89 93 94 95 92 90 88 82 78 77 86 87 88 91 90 91 90 95 90 84 84 84 84 84 84 84 84 84 84 84 84 84 84 85 85 85 85 85 85 85 84 84 84 85
80 84 75 84 84 84 90 97 93 91 89 88 89 76 80 82 87 90 91 92 92 94 94 91 91 87 84 84 84 84 84 84 84 84 84 84 84 84 85 84 85 85 86 85 85 85 84 84 84
91 89 80 88 82 85 93 95 96 93 89 96 94 78 75 82 88 91 92 91 93 95 94 91 90 91 90 89 84 84 84 84 84 84 84 84 85 85 85 85 85 85 86 86 85 85 85 84 84
96 82 70 77 75 89 96 92 97 99 91 92 93 90 89 88 89 88 88 87 89 94 96 96 94 92 92 92 89 85 84 84 84 85 84 85 91 87 90 86 86 86 86 86 86 85 85 85 84
89 79 65 95 88 87 95 95 93 92 89 88 92 93 91 89 86 84 83 84 87 91 96 97 96 95 94 97 88 90 92 93 91 89 90 79 90 95 90 90 86 87 87 87 86 86 86 86 80
92 84 71 95 97 97 96 94 96 92 87 91 87 88 89 90 88 84 86 86 88 95 97 98 96 94 95 95 93 95 95 96 95 91 92 84 93 89 81 89 84 87 88 84 85 88 81 89 79
88 94 92 94 98 97 92 96 94 93 94 97 95 93 91 91 90 88 87 88 92 93 95 97 96 92 93 95 95 97 97 97 97 95 92 92 90 94 94 83 88 88 90 90 91 88 93 78 87
90 91 96 97 97 98 97 93 93 94 98 100 97 93 91 92 93 94 95 95 95 93 95 96 94 91 91 91 95 97 97 97 98 96 93 96 95 91 84 90 84 87 89 88 86 84 94 89 93
96 94 96 98 98 98 95 95 95 96 99 97 94 92 93 93 94 95 95 94 94 94 94 96 94 91 91 90 91 93 95 97 97 97 96 92 94 94 95 92 82 83 85 91 94 87 84 84 92
97 89 93 95 97 95 98 89 91 98 98 95 93 92 93 93 95 94 95 94 95 95 95 95 94 93 89 89 90 92 95 97 96 97 94 92 91 92 89 80 86 83 92 92 91 91 92 79 89
89 90 83 93 96 97 96 82 95 100 96 93 92 92 92 93 95 95 96 96 95 95 93 94 96 94 90 89 90 93 96 97 97 97 97 92 91 91 90 87 79 88 93 93 85 93 80 76 91
86 79 82 88 97 96 93 82 69 100 96 93 93 93 92 92 94 96 97 97 96 95 93 92 93 94 91 89 91 92 93 94 97 97 97 92 92 91 91 86 81 92 93 94 85 82 88 85 89
79 80 86 84 94 94 91 90 87 98 97 95 94 93 92 93 93 96 97 97 97 95 94 92 93 92 91 91 89 93 94 94 96 96 97 93 92 92 91 93 89 93 78 90 84 86 85 92 91
88 86 85 90 96 91 89 88 90 96 97 96 95 93 93 94 96 97 97 97 97 95 92 91 90 89 91 90 89 90 90 91 93 95 94 93 92 92 88 92 87 92 91 89 89 87 87 87 91
85 85 86 91 95 92 89 88 93 95 96 97 97 94 94 95 95 95 95 96 95 93 92 90 89 89 89 91 90 92 92 94 94 95 94 93 93 92 90 90 84 86 84 89 90 88 89 91 92
83 82 85 85 91 94 89 85 88 96 99 99 100 98 97 95 95 94 94 94 96 93 92 90 88 88 88 89 91 91 92 92 93 93 94 94 93 93 91 91 91 82 91 83 89 88 88 80 90
78 88 88 86 85 78 89 74 85 92 93 95 98 99 98 97 97 97 96 95 95 95 94 92 89 88 88 88 89 86 88 88 92 93 95 95 93 93 93 92 91 90 93 91 91 91 89 86 87
82 90 86 86 83 83 83 79 85 91 88 93 97 100 101 100 99 98 97 96 97 97 95 93 89 87 88 87 87 89 87 92 94 95 91 90 91 92 94 93 90 89 91 93 90 89 86 90 89
90 86 86 85 82 71 79 81 82 88 90 95 98 100 101 102 101 100 100 99 98 99 97 95 90 87 87 88 86 87 86 87 91 92 93 94 94 94 91 93 92 89 90 91 89 89 87 86 89
86 81 70 67 69 68 83 79 82 93 97 98 98 100 102 103 102 100 99 98 97 97 96 96 89 86 87 88 87 86 87 87 88 90 92 93 95 95 92 90 90 90 89 90 91 88 88 86 87
81 81 71 60 66 72 82 74 82 96 100 103 103 104 104 103 103 101 100 99 98 97 96 95 90 87 88 87 86 86 87 91 90 91 95 95 96 97 96 91 91 90 90 90 90 90 89 88 86
81 77 88 79 82 77 81 84 92 97 97 99 99 102 103 103 103 103 102 102 100 98 96 94 92 88 88 88 87 87 87 87 90 88 90 94 93 98 96 94 91 91 90 90 89 90 88 89 86
87 89 75 79 66 66 77 79 81 87 91 96 97 99 102 104 104 104 104 102 102 101 99 97 93 90 89 89 89 89 88 88 89 90 89 90 92 94 95 93 91 90 90 90 88 89 89 87 88
81 81 82 84 80 71 70 78 94 92 93 94 98 100 102 105 104 105 105 105 103 103 101 98 96 93 91 90 90 89 89 90 89 90 91 90 91 92 91 92 91 90 89 89 88 88 90 86 85
88 83 82 74 71 79 80 81 97 99 98 98 97 101 104 106 107 107 106 105 104 102 102 100 99 96 95 92 90 90 90 90 90 89 91 91 90 90 91 90 90 90 90 89 88 87 89 88 85
MSLP
1010.59 1010.25 1010.06 1010.57 1010.26 1007.01 1004.23 1002.41 1001.56 1002.27 1002.88 1003.63 1005.00 1005.33 1007.15 1008.35 1009.50 1012.45 1013.69 1013.94 1014.53 1014.23 1014.05 1014.72 1015.14 1015.14 1015.21 1015.41 1015.68 1015.94 1016.25 1016.60 1016.70 1016.84 1016.89 1017.02 1017.15 1017.21 1017.27 1017.28 1017.29 1017.34 1017.36 1017.41 1017.46 1017.52 1017.58 1017.70 1017.79
1009.33 1009.21 1009.29 1008.83 1007.45 1005.04 1002.48 1002.15 1002.15 1002.68 1002.83 1003.95 1004.42 1005.25 1006.55 1008.82 1010.61 1012.08 1013.15 1013.89 1014.13 1013.60 1013.75 1014.48 1015.31 1015.35 1015.51 1015.76 1016.04 1016.26 1016.59 1016.83 1016.97 1017.03 1017.17 1017.31 1017.37 1017.45 1017.48 1017.46 1017.48 1017.47 1017.60 1017.65 1017.72 1017.76 1017.79 1017.85 1017.93
1008.81 1008.64 1008.24 1006.47 1004.84 1003.18 1001.44 1001.60 1001.64 1002.15 1002.80 1003.85 1004.69 1006.18 1006.58 1009.02 1010.92 1011.74 1011.98 1013.65 1013.29 1013.48 1013.78 1014.83 1015.46 1015.62 1015.79 1016.08 1016.29 1016.56 1016.81 1016.99 1017.16 1017.28 1017.37 1017.50 1017.60 1017.68 1017.71 1017.73 1017.71 1017.73 1017.79 1017.85 1017.94 1017.95 1017.97 1018.00 1018.00
1008.74 1007.84 1007.14 1005.40 1003.68 1000.77 1000.48 1000.60 1001.21 1002.08 1003.00 1003.69 1004.66 1006.22 1007.66 1008.89 1010.60 1011.00 1012.24 1013.12 1013.39 1014.18 1013.80 1015.31 1015.56 1015.81 1016.09 1016.31 1016.58 1016.81 1016.99 1017.17 1017.36 1017.51 1017.63 1017.67 1017.76 1017.83 1017.91 1017.87 1017.80 1017.87 1017.97 1018.01 1018.05 1018.13 1018.11 1018.08 1018.06
1007.85 1006.16 1003.97 1002.50 1000.76 1000.03 999.74 999.98 1001.16 1001.92 1002.37 1003.33 1004.96 1006.54 1008.55 1009.79 1010.23 1010.93 1012.25 1012.66 1013.20 1013.61 1014.00 1015.09 1015.76 1016.01 1016.33 1016.54 1016.82 1017.01 1017.14 1017.32 1017.56 1017.71 1017.79 1017.85 1017.94 1018.01 1018.04 1017.95 1017.98 1018.06 1018.10 1018.13 1018.15 1018.15 1018.14 1018.12 1018.13
1006.59 1004.32 1003.69 1001.98 999.61 999.24 999.50 1000.03 1000.13 1000.82 1002.19 1003.68 1005.52 1007.21 1008.95 1010.22 1010.58 1011.45 1012.01 1012.56 1012.93 1013.38 1013.69 1015.06 1015.91 1016.23 1016.54 1016.75 1017.00 1017.18 1017.34 1017.58 1017.72 1017.82 1017.92 1018.00 1018.09 1018.13 1018.08 1018.12 1018.15 1018.14 1018.21 1018.31 1018.27 1018.24 1018.19 1018.18 1018.20
1005.13 1002.75 1001.58 999.71 999.24 999.18 999.51 999.72 999.76 1001.04 1002.30 1003.14 1005.30 1006.90 1009.05 1010.29 1011.08 1011.53 1011.98 1012.44 1012.64 1012.76 1013.39 1014.75 1015.52 1016.24 1016.71 1016.91 1017.21 1017.41 1017.62 1017.80 1017.85 1017.96 1018.04 1018.12 1018.15 1018.11 1018.09 1018.21 1018.26 1018.31 1018.32 1018.40 1018.41 1018.38 1018.39 1018.32 1018.29
1003.37 1002.40 1001.12 998.98 998.87 999.12 999.83 999.66 1000.71 1001.13 1002.28 1003.63 1004.56 1006.24 1008.31 1009.99 1010.96 1011.37 1011.92 1012.44 1012.38 1012.65 1013.62 1014.55 1015.36 1015.88 1016.19 1016.82 1017.34 1017.54 1017.73 1017.90 1017.99 1018.10 1018.12 1018.10 1017.96 1017.89 1017.97 1018.10 1018.26 1018.37 1018.38 1018.37 1018.44 1018.53 1018.49 1018.37 1018.29
1003.02 1002.08 1001.97 999.58 999.93 998.76 999.52 1000.06 1000.87 1001.71 1002.94 1003.75 1004.27 1005.65 1007.95 1010.04 1010.86 1011.25 1011.82 1012.58 1012.52 1012.41 1013.15 1014.01 1014.86 1015.47 1015.62 1016.21 1017.12 1017.62 1017.82 1017.96 1018.08 1018.05 1017.95 1017.88 1017.21 1017.48 1017.60 1018.01 1018.25 1018.35 1018.35 1018.43 1018.43 1018.38 1018.27 1018.36 1018.51
1002.15 1001.79 1002.15 998.63 999.25 998.91 998.97 999.71 1000.88 1001.61 1002.76 1003.73 1004.24 1005.93 1008.31 1009.73 1010.67 1011.20 1011.81 1012.34 1012.52 1012.23 1012.81 1013.45 1014.08 1014.83 1015.26 1015.37 1016.91 1016.93 1017.08 1017.16 1017.28 1017.30 1017.25 1017.27 1017.20 1016.95 1017.47 1017.65 1018.07 1018.19 1018.22 1018.21 1018.22 1018.06 1018.32 1018.37 1018.27
1000.96 1001.17 1001.40 998.84 998.52 998.37 998.36 999.37 1000.62 1001.33 1002.09 1003.30 1004.56 1006.22 1007.81 1009.03 1010.16 1011.15 1011.71 1012.20 1012.37 1011.91 1012.45 1013.01 1013.75 1014.65 1014.90 1014.89 1016.10 1016.04 1016.23 1016.21 1016.54 1017.05 1017.08 1017.36 1016.83 1017.25 1017.47 1017.43 1017.79 1017.82 1017.70 1018.08 1017.95 1017.92 1017.94 1017.63 1018.13
1000.35 999.78 999.65 998.72 998.80 998.17 998.05 998.85 1000.01 1000.76 1001.34 1002.93 1004.46 1006.08 1007.19 1007.99 1009.12 1010.28 1010.90 1011.69 1011.56 1011.92 1012.31 1012.84 1013.67 1014.57 1014.86 1015.02 1015.54 1015.41 1015.62 1015.77 1015.88 1016.44 1017.21 1017.02 1017.01 1016.78 1016.77 1017.41 1017.54 1017.27 1017.19 1017.29 1017.33 1017.43 1017.34 1018.21 1017.25
999.76 999.38 999.09 998.66 998.74 998.49 998.28 998.64 999.21 1000.69 1001.49 1002.83 1004.37 1005.86 1006.88 1007.59 1008.24 1008.93 1009.55 1010.39 1011.09 1011.82 1012.33 1012.84 1013.88 1014.76 1015.16 1015.37 1015.36 1015.04 1015.35 1015.84 1015.65 1016.21 1016.97 1016.50 1016.40 1016.74 1017.35 1016.96 1017.30 1017.45 1017.33 1017.31 1017.59 1017.82 1017.18 1017.51 1017.06
998.95 999.31 998.69 998.54 998.36 998.57 998.51 998.45 999.49 1000.13 1001.57 1002.63 1004.24 1005.45 1006.39 1007.11 1007.70 1008.29 1008.82 1009.64 1010.57 1011.53 1012.17 1012.77 1013.79 1014.72 1015.32 1015.64 1015.58 1015.57 1015.59 1015.59 1015.88 1015.94 1016.30 1017.23 1016.75 1016.57 1016.64 1016.96 1017.35 1017.41 1017.52 1017.52 1017.18 1017.65 1017.80 1017.75 1017.23
998.71 998.78 998.71 998.26 998.16 997.97 998.46 998.19 998.83 999.38 1001.24 1002.26 1003.67 1004.84 1005.75 1006.57 1007.27 1007.80 1008.44 1009.32 1010.42 1011.28 1011.91 1012.58 1013.53 1014.32 1015.26 1015.66 1015.90 1015.93 1015.66 1015.60 1015.83 1015.97 1016.50 1016.99 1017.20 1017.12 1017.29 1017.55 1016.94 1017.36 1017.07 1017.37 1017.56 1017.53 1017.31 1018.21 1017.58
999.04 998.62 997.65 997.72 997.78 997.77 998.25 997.49 998.03 999.11 1000.75 1001.72 1003.02 1004.09 1005.07 1005.98 1006.67 1007.51 1008.23 1009.01 1010.10 1010.92 1011.68 1012.60 1013.18 1013.84 1014.89 1015.32 1015.60 1015.65 1015.34 1015.42 1015.56 1015.65 1015.97 1016.81 1017.06 1017.21 1017.13 1016.95 1018.03 1017.18 1017.12 1016.99 1017.72 1017.55 1018.03 1018.19 1017.75
998.17 997.17 996.94 996.38 996.62 996.83 997.55 998.21 1000.15 998.62 1000.02 1000.96 1002.29 1003.36 1004.33 1005.33 1006.13 1006.97 1007.78 1008.69 1009.51 1010.53 1011.41 1012.33 1012.84 1013.25 1014.24 1014.88 1015.14 1015.38 1015.25 1015.52 1015.37 1015.50 1015.61 1016.27 1016.82 1017.03 1017.12 1016.91 1017.33 1017.07 1016.97 1016.83 1017.51 1017.63 1017.38 1017.58 1017.09
996.79 996.62 995.71 995.53 995.41 996.18 996.63 996.83 998.16 997.83 998.86 999.82 1001.28 1002.48 1003.52 1004.36 1005.27 1006.31 1007.24 1008.25 1009.11 1010.12 1011.09 1012.01 1012.57 1013.07 1013.80 1014.47 1014.97 1014.98 1015.06 1015.40 1015.40 1015.38 1015.41 1015.87 1016.55 1016.64 1016.85 1016.35 1016.76 1016.81 1017.86 1016.91 1017.57 1017.78 1017.62 1017.04 1017.14
996.26 995.64 995.11 994.46 994.79 995.82 995.90 996.39 997.23 996.86 997.97 998.58 999.69 1001.33 1002.48 1003.39 1004.57 1005.69 1006.79 1007.73 1008.64 1009.57 1010.55 1011.49 1012.21 1012.83 1013.44 1014.02 1014.34 1014.53 1014.59 1014.98 1015.18 1015.13 1015.32 1015.70 1016.19 1016.29 1016.96 1016.43 1016.88 1016.62 1016.88 1017.25 1017.60 1017.75 1017.62 1017.09 1017.44
996.54 995.17 994.50 994.52 994.36 994.94 995.34 995.59 996.03 996.43 996.53 997.83 998.45 1000.14 1001.37 1002.53 1003.72 1004.95 1006.10 1006.88 1007.85 1008.82 1009.89 1010.92 1011.76 1012.45 1013.14 1013.51 1013.76 1013.94 1014.14 1014.29 1014.70 1014.78 1014.97 1015.53 1015.67 1015.98 1016.55 1016.41 1016.58 1016.46 1016.99 1017.04 1017.21 1017.47 1016.91 1016.80 1017.21
996.10 995.21 994.47 994.25 994.44 994.51 995.22 995.03 995.20 995.41 995.62 996.56 997.61 998.77 1000.26 1001.17 1002.34 1003.87 1005.06 1006.02 1006.97 1007.98 1009.05 1010.20 1011.25 1011.97 1012.68 1012.98 1013.52 1013.83 1013.94 1014.20 1014.16 1014.37 1014.64 1014.92 1015.29 1015.50 1016.09 1016.08 1016.13 1016.88 1016.58 1016.98 1017.11 1017.40 1017.28 1017.05 1017.26
995.05 995.43 995.15 994.70 994.26 993.97 995.24 994.14 994.26 994.52 994.81 995.75 996.43 997.10 998.64 999.93 1001.21 1002.47 1003.76 1005.01 1005.92 1006.96 1008.27 1009.28 1010.44 1011.34 1012.04 1012.73 1012.58 1013.06 1013.29 1013.28 1013.55 1013.78 1013.89 1014.00 1014.69 1015.14 1015.34 1015.76 1016.05 1016.40 1016.37 1016.21 1016.64 1017.03 1017.13 1017.34 1016.95
994.74 995.06 995.56 995.37 994.87 994.37 994.00 993.80 992.60 993.11 993.63 994.17 995.10 995.76 996.81 998.41 999.78 1000.97 1002.29 1003.62 1004.76 1006.09 1007.20 1008.42 1009.63 1010.61 1011.23 1011.92 1012.25 1012.41 1012.89 1012.80 1012.91 1013.13 1013.42 1013.83 1014.25 1014.67 1014.87 1015.14 1015.69 1016.25 1016.42 1016.02 1016.51 1016.87 1017.41 1017.22 1016.99
995.23 995.31 995.14 995.53 995.24 993.89 993.46 992.76 991.58 991.25 991.81 992.45 993.43 994.65 995.53 996.78 998.36 999.71 1001.03 1002.56 1003.83 1005.10 1006.28 1007.43 1008.71 1009.75 1010.65 1011.18 1011.86 1011.89 1012.08 1012.46 1012.36 1012.61 1012.76 1013.08 1013.67 1014.00 1014.52 1014.68 1015.04 1015.58 1015.94 1015.91 1016.35 1016.66 1017.22 1017.39 1017.11
994.66 994.68 994.12 993.99 993.25 992.27 993.00 992.35 991.34 990.98 991.05 991.61 992.45 993.32 994.37 995.66 997.02 998.50 999.75 1001.16 1002.56 1003.80 1005.15 1006.29 1007.62 1008.76 1009.62 1010.27 1010.93 1011.61 1011.76 1012.22 1012.14 1012.12 1012.34 1012.21 1012.48 1012.83 1013.24 1014.17 1014.67 1015.16 1015.53 1015.55 1015.75 1016.43 1016.74 1017.20 1017.20
993.22 993.26 992.12 991.42 991.27 991.66 992.12 990.20 990.09 990.94 990.72 990.71 991.46 992.13 993.31 994.55 995.82 997.23 998.65 999.86 1001.22 1002.47 1003.71 1004.98 1006.16 1007.50 1008.61 1009.37 1009.89 1010.65 1011.22 1011.35 1011.83 1011.81 1011.44 1011.87 1011.82 1011.97 1012.41 1013.49 1014.08 1014.60 1015.06 1015.34 1015.42 1016.04 1016.48 1016.72 1017.07
992.02 991.80 991.99 991.17 990.45 989.82 989.37 989.63 990.01 989.82 990.20 990.72 991.27 991.41 991.94 993.27 994.75 995.97 997.39 998.72 999.91 1001.25 1002.42 1003.66 1004.85 1006.22 1007.36 1008.10 1009.00 1009.58 1010.28 1010.61 1010.50 1011.03 1011.40 1011.49 1011.55 1011.58 1011.99 1012.79 1013.65 1014.10 1014.48 1014.81 1015.27 1015.66 1015.94 1016.12 1016.59
990.49 991.76 991.98 990.80 989.35 988.53 988.23 987.74 987.77 988.66 989.17 989.55 990.44 990.97 991.33 992.07 993.62 994.85 996.00 997.47 998.68 999.84 1001.02 1002.33 1003.61 1004.71 1005.53 1006.59 1007.52 1008.21 1008.78 1009.47 1009.92 1010.28 1010.59 1010.88 1011.17 1011.43 1011.52 1012.19 1013.04 1013.65 1013.95 1014.33 1014.79 1014.89 1015.30 1015.74 1015.87
990.00 989.77 990.62 990.50 989.67 988.49 987.89 987.19 986.83 987.23 988.47 989.32 989.59 990.38 990.84 991.18 992.35 993.68 994.89 995.98 997.41 998.66 999.93 1001.20 1002.39 1003.41 1004.74 1005.59 1006.11 1006.86 1007.49 1008.22 1009.03 1009.36 1009.69 1010.22 1010.62 1010.91 1011.32 1011.65 1012.30 1012.89 1013.35 1013.74 1014.14 1014.40 1014.41 1015.02 1015.46
989.28 989.24 989.64 989.25 989.12 988.80 987.53 986.97 986.96 986.70 987.76 988.54 989.42 989.70 990.23 990.66 991.32 992.60 993.83 995.10 996.26 997.58 998.61 999.67 1000.92 1002.17 1003.03 1004.12 1005.09 1005.55 1006.23 1007.03 1007.59 1008.17 1008.76 1009.25 1009.65 1010.19 1010.40 1011.03 1011.49 1012.04 1012.54 1012.93 1013.30 1013.70 1013.66 1014.00 1014.61
Wind_Speed
15 16 10 5 4 7 1 9 11 10 8 14 12 8 12 8 5 8 12 11 12 14 12 13 12 14 16 15 15 15 15 13 12 12 11 12 11 11 12 11 9 10 10 9 9 8 8 7 8
14 12 3 6 4 2 6 14 10 7 14 14 11 13 10 10 8 14 17 18 21 15 14 15 13 14 16 15 15 15 14 13 12 11 11 11 11 10 10 10 8 10 10 9 8 8 6 5 5
12 16 4 5 5 6 4 12 12 13 11 11 14 7 5 9 17 18 22 25 22 15 11 16 14 15 16 16 14 13 13 13 11 10 11 11 10 9 10 9 9 9 9 8 7 7 6 5 4
8 6 8 2 16 10 8 11 11 10 9 9 14 13 11 14 13 17 31 27 15 10 16 16 16 16 16 15 14 13 13 12 11 11 11 9 9 8 9 8 9 9 8 7 7 7 5 4 3
4 9 11 10 8 9 10 11 13 13 9 10 15 13 13 11 18 28 29 20 18 16 17 17 15 15 15 14 13 12 12 12 11 10 10 9 8 6 8 8 7 8 7 6 6 6 6 4 4
6 7 5 7 8 10 12 6 9 12 12 10 14 18 10 14 27 23 23 19 17 18 20 17 16 15 14 14 13 12 11 11 10 9 9 8 6 5 6 7 8 7 6 6 6 6 6 5 5
16 11 16 2 7 13 11 5 7 9 10 10 18 12 15 22 23 22 20 19 18 19 18 16 16 15 14 13 12 12 10 10 9 8 7 6 6 5 4 5 5 5 5 5 5 4 4 5 5
13 14 14 5 9 16 10 9 8 11 15 14 18 11 21 25 24 21 19 16 17 20 18 16 15 14 13 13 12 11 10 9 8 6 5 6 7 8 7 7 6 4 4 4 4 3 3 5 7
10 13 5 17 21 22 10 13 10 13 13 8 4 22 25 27 23 20 18 15 11 15 19 18 16 14 12 13 11 10 9 8 7 7 9 10 6 6 9 11 5 5 5 4 4 5 7 7 5
15 1 11 4 20 7 10 14 11 12 12 12 14 27 26 27 23 19 18 17 16 16 19 17 17 15 12 11 12 10 10 9 9 7 8 7 4 2 4 8 7 7 7 8 8 9 5 9 4
17 12 28 7 9 4 16 17 7 14 12 14 19 26 28 29 22 21 20 18 20 18 16 18 15 14 12 9 9 6 6 7 5 3 4 5 4 5 3 3 4 5 10 2 6 6 7 4 9
18 11 16 5 6 6 11 18 13 4 16 17 20 24 27 27 26 24 22 21 20 19 17 17 15 12 11 7 7 8 6 5 6 8 5 1 2 2 2 5 5 3 3 5 3 4 3 7 8
19 19 9 10 5 5 3 11 12 11 7 18 20 24 26 23 23 23 24 23 20 18 17 17 15 12 9 7 7 6 6 5 5 7 8 5 3 3 7 4 5 6 3 2 6 4 2 6 1
13 17 13 14 11 11 11 10 9 17 13 19 20 23 24 24 23 21 21 20 20 19 18 17 16 14 12 9 6 6 5 7 4 5 7 5 7 2 3 2 4 5 4 1 1 3 4 4 4
20 13 17 12 15 10 12 14 17 20 17 20 21 21 23 23 23 21 20 20 19 17 18 17 16 16 13 12 9 8 7 6 7 5 5 5 4 4 5 5 1 2 3 1 1 2 2 5 7
18 21 17 20 19 16 14 18 20 19 19 20 21 20 21 24 24 21 20 20 20 18 18 17 16 17 16 12 10 9 8 8 6 6 7 7 6 5 6 4 5 1 1 1 2 1 3 4 2
18 18 23 21 22 15 17 7 14 21 20 20 20 21 20 22 23 22 22 20 20 19 18 18 17 17 17 13 10 10 8 7 7 6 6 10 8 7 7 3 4 2 1 1 3 2 2 7 5
23 24 23 22 19 18 17 18 27 19 20 20 21 20 21 22 24 23 22 21 20 20 18 17 15 13 13 11 9 9 8 8 8 7 8 8 7 8 6 5 4 3 4 3 2 4 5 4 5
22 22 26 22 16 20 19 18 20 20 18 17 21 20 22 22 22 23 22 21 20 20 19 18 16 14 11 11 11 10 10 9 9 8 9 8 8 8 5 6 8 5 3 5 2 2 4 1 3
27 24 22 22 15 13 19 20 18 16 20 17 18 21 21 22 23 23 23 23 22 21 19 17 16 14 12 11 9 9 9 10 9 9 9 10 11 9 8 7 4 5 6 3 3 2 4 3 2
27 27 21 18 19 19 14 19 18 20 15 19 16 22 21 23 24 24 25 24 23 22 20 19 17 16 15 14 9 7 8 7 9 9 10 11 10 10 10 10 6 1 4 6 6 6 4 3 3
27 26 23 19 20 17 23 16 19 18 19 18 19 21 23 24 25 25 26 25 25 23 21 19 19 17 16 16 13 14 11 11 11 9 10 10 12 11 11 9 7 5 6 3 5 5 3 4 5
23 21 23 22 18 17 19 20 17 26 23 23 21 20 24 25 26 26 27 27 26 23 22 20 19 18 17 17 16 13 14 11 9 10 10 10 10 11 12 10 10 8 8 6 2 5 5 4 6
21 19 21 23 18 21 24 20 18 16 25 27 23 21 21 24 25 26 26 25 24 23 22 21 20 19 18 18 19 15 15 14 12 11 10 10 10 11 11 11 9 9 8 6 8 6 7 7 4
20 20 14 17 20 16 24 24 18 18 19 18 19 22 21 22 24 25 26 25 24 24 23 21 21 20 20 19 18 19 16 16 13 11 11 10 10 11 12 14 9 10 9 9 7 8 7 8 6
26 25 16 21 18 18 24 27 23 24 12 14 22 20 22 22 23 24 25 25 24 24 24 22 22 22 21 21 20 18 17 13 14 13 11 11 10 10 8 13 11 11 12 11 8 8 8 8 8
23 30 25 23 23 16 20 24 27 22 27 20 15 21 23 24 23 25 27 25 25 23 24 24 22 23 22 22 19 19 18 18 16 17 14 12 10 11 9 10 11 12 12 11 10 9 10 7 9
28 23 24 19 22 20 16 16 17 21 18 25 25 17 21 24 24 24 24 26 23 25 24 25 24 23 24 24 21 19 20 20 17 14 15 15 13 11 8 12 12 13 12 12 11 11 10 10 9
26 23 27 21 18 14 12 9 17 19 22 21 21 26 21 21 24 24 23 25 25 23 24 24 23 24 22 23 22 21 20 20 19 17 16 16 14 13 14 11 13 13 14 13 12 12 10 13 11
27 28 29 18 24 18 12 2 11 10 8 17 21 19 24 20 22 22 23 21 23 24 24 25 25 25 23 22 21 22 20 20 20 19 19 18 17 16 15 15 15 15 15 14 15 15 14 13 14
Wind_Direction
170 182 190 174 252 240 133 91 96 99 78 99 115 104 103 45 43 121 135 150 156 172 139 151 143 135 125 123 123 121 118 123 115 110 102 96 89 82 84 85 86 90 87 92 96 95 97 99 105
175 177 203 259 248 222 107 75 66 103 100 107 111 109 77 84 85 126 146 159 171 158 147 146 143 137 128 123 124 121 125 120 116 109 107 98 90 80 86 79 85 93 93 88 94 94 94 107 100
169 207 236 241 260 108 81 141 125 96 119 126 104 111 51 85 118 142 141 156 184 157 138 132 143 135 127 128 125 125 124 120 114 113 100 94 91 87 80 72 78 83 86 91 92 96 95 98 106
185 219 244 183 281 88 104 102 98 115 116 102 116 84 83 120 132 153 143 165 154 155 147 139 146 137 134 130 128 128 124 123 117 106 101 96 90 86 80 85 89 83 81 82 85 85 85 80 90
240 253 248 220 163 63 77 88 117 142 132 131 107 98 101 107 147 140 149 153 158 153 143 146 147 137 136 134 134 132 131 120 116 111 106 103 98 79 78 86 88 86 88 86 81 85 76 65 70
252 236 91 252 84 97 85 121 111 89 107 102 97 117 115 131 136 140 151 155 154 158 147 140 142 137 139 138 138 136 125 121 121 115 111 110 106 89 76 76 77 88 88 88 85 83 81 63 68
256 306 286 292 110 90 91 147 105 103 121 124 133 124 128 148 147 155 154 155 169 156 140 149 147 142 144 141 139 133 131 132 124 123 126 129 128 118 101 93 84 79 80 86 87 79 82 90 90
261 269 298 311 87 102 118 93 88 131 81 125 130 135 152 146 160 156 156 161 175 147 148 151 151 158 157 149 141 139 143 140 137 141 162 173 177 175 170 154 112 121 121 115 121 128 147 144 129
244 270 124 255 40 115 140 104 81 83 128 130 77 134 140 146 163 157 152 156 191 158 154 161 160 162 166 149 142 148 153 149 159 176 210 206 208 171 154 81 106 133 146 148 157 176 201 173 162
236 39 274 292 166 89 126 122 115 133 138 131 116 119 140 154 165 160 159 158 187 173 167 165 168 160 166 164 145 173 161 175 193 185 204 147 218 95 60 125 156 159 175 178 188 216 252 202 185
232 243 229 110 25 219 140 122 148 117 157 150 132 143 155 154 164 162 167 162 191 166 176 168 171 159 178 144 163 178 169 170 172 156 247 189 100 256 185 164 152 208 189 199 182 184 229 208 173
239 259 259 91 122 268 152 131 138 204 131 147 141 155 161 166 165 170 174 169 191 170 185 167 168 159 190 151 186 175 170 183 181 176 212 107 219 202 125 196 173 111 307 66 325 27 355 38 306
226 261 217 249 232 242 270 141 143 143 139 142 145 161 169 175 174 174 176 173 177 178 186 171 169 164 190 193 190 203 184 199 202 145 176 263 281 129 83 279 161 152 35 300 73 277 337 115 302
217 231 253 236 209 183 227 168 204 148 154 145 158 169 175 181 180 177 182 173 178 180 183 178 174 173 191 200 217 217 203 168 229 184 159 204 278 133 331 238 318 108 170 109 79 50 210 84 349
230 252 228 225 237 216 222 188 187 151 165 158 165 173 179 185 182 184 184 178 182 181 179 186 185 178 191 198 199 213 190 222 193 219 155 211 212 182 278 342 142 163 140 119 112 230 29 107 260
220 229 219 212 217 212 208 208 175 156 170 170 171 176 179 186 186 187 187 183 179 184 183 192 191 180 185 195 193 211 219 204 210 205 181 195 206 254 241 245 109 56 344 140 216 166 120 258 171
214 221 223 220 204 204 207 164 308 167 178 176 178 178 181 184 192 188 187 188 181 188 186 191 194 189 184 196 203 211 205 224 213 210 214 163 203 212 251 211 59 177 22 220 139 194 281 195 196
214 215 217 222 191 207 197 242 182 167 178 184 181 181 186 186 191 185 190 188 188 186 187 192 194 202 180 188 206 204 212 209 225 216 215 159 211 221 228 240 189 264 188 55 103 45 306 356 23
237 211 231 201 184 199 223 222 186 169 185 198 174 186 189 190 186 184 192 186 190 188 189 192 197 189 187 198 197 209 206 202 214 220 213 197 224 222 213 261 216 220 215 121 108 193 180 235 110
234 243 214 232 199 203 208 221 204 244 183 197 190 184 193 186 182 189 189 190 192 191 188 188 196 191 197 199 210 209 213 208 209 212 199 214 217 216 208 240 194 231 141 130 194 251 285 161 143
225 233 232 222 218 214 227 227 223 225 207 184 209 181 194 190 186 187 189 197 193 191 188 189 190 194 195 216 199 207 224 234 204 215 206 205 216 217 210 192 249 133 290 149 170 190 281 269 148
220 222 237 238 233 209 204 233 211 218 200 196 198 192 186 195 190 185 190 193 196 194 191 189 187 195 195 201 207 205 209 211 218 208 212 205 194 215 201 218 197 232 241 136 155 196 274 272 156
227 214 223 238 243 250 232 221 238 197 211 197 204 199 189 191 191 189 190 191 196 194 192 192 187 192 199 195 219 198 216 215 209 220 209 203 183 204 218 206 187 205 226 236 270 126 231 185 293
214 230 221 219 234 238 231 242 219 225 203 207 188 205 196 187 191 194 186 187 194 193 194 191 187 193 198 196 201 220 202 228 212 202 210 210 212 193 214 218 207 193 220 227 204 198 205 251 220
208 207 204 216 214 227 225 233 235 229 220 202 208 195 195 190 191 191 187 187 187 192 194 193 186 193 195 201 201 211 217 204 231 213 208 217 217 207 191 197 207 203 203 236 212 185 212 207 223
206 210 217 209 216 220 227 229 224 236 247 230 196 206 193 186 194 191 192 187 186 189 190 194 187 190 194 200 203 200 211 213 214 217 222 210 233 211 195 178 194 216 194 213 202 212 212 196 210
192 216 218 241 213 234 213 217 237 228 222 218 242 201 195 184 193 190 190 195 188 188 190 192 193 191 193 200 202 204 203 212 212 216 210 236 215 238 188 185 189 203 212 201 205 219 190 213 203
228 203 215 229 249 223 232 242 206 208 223 212 206 211 218 178 187 195 193 192 195 190 191 191 195 194 196 197 200 203 203 205 215 209 215 210 226 222 240 181 192 207 205 209 205 207 212 200 205
205 210 213 229 232 244 242 239 220 200 201 215 217 209 214 207 184 193 195 194 194 196 192 195 197 200 195 200 202 204 204 204 205 216 208 216 208 218 211 200 195 202 208 207 205 223 217 195 209
208 218 199 222 214 238 267 95 30 155 207 188 215 210 209 202 189 191 189 197 194 197 199 198 201 202 203 202 205 204 205 204 204 208 212 204 212 206 203 208 196 204 207 207 207 209 221 201 207